�������l�o���
Date,Time,MP-1(��Sv/h),MP-2(��Sv/h),MP-3(��Sv/h),MP-4(��Sv/h),MP-5(��Sv/h),MP-6(��Sv/h),MP-7(��Sv/h),MP-8(��Sv/h),����,����(m/s),���J
2018/10/20,00:00,0.783,1.180,0.832,1.492,1.061,0.458,0.809,0.765,�k��,2.9,��
2018/10/20,00:10,0.783,1.180,0.834,1.487,1.060,0.459,0.807,0.766,�k��,2.6,��
2018/10/20,00:20,0.781,1.181,0.831,1.491,1.060,0.460,0.808,0.767,�k�k��,2.6,��
2018/10/20,00:30,0.782,1.179,0.833,1.485,1.060,0.459,0.809,0.764,�k�k��,2.9,��
2018/10/20,00:40,0.784,1.180,0.831,1.487,1.060,0.459,0.807,0.764,�k�k��,2.9,��
2018/10/20,00:50,0.782,1.182,0.832,1.486,1.059,0.459,0.808,0.765,�k�k��,2.8,��
2018/10/20,01:00,0.782,1.178,0.832,1.489,1.059,0.459,0.808,0.765,�k�k��,2.0,��
2018/10/20,01:10,0.781,1.177,0.832,1.490,1.061,0.458,0.807,0.768,�k,2.8,��
2018/10/20,01:20,0.782,1.179,0.833,1.485,1.061,0.460,0.807,0.766,�k,2.6,��
2018/10/20,01:30,0.782,1.180,0.832,1.489,1.061,0.458,0.807,0.766,�k�k��,3.1,��
2018/10/20,01:40,0.782,1.179,0.833,1.490,1.060,0.457,0.806,0.765,�k�k��,3.8,��
2018/10/20,01:50,0.782,1.181,0.832,1.490,1.063,0.459,0.808,0.766,�k�k��,4.6,��
2018/10/20,02:00,0.780,1.180,0.833,1.489,1.061,0.460,0.808,0.764,�k�k��,5.1,��
2018/10/20,02:10,0.782,1.182,0.832,1.491,1.062,0.459,0.807,0.765,�k��,4.9,��
2018/10/20,02:20,0.782,1.180,0.834,1.490,1.061,0.459,0.807,0.765,�k�k��,4.6,��
2018/10/20,02:30,0.784,1.178,0.831,1.491,1.062,0.459,0.806,0.765,�k�k��,4.6,��
2018/10/20,02:40,0.782,1.180,0.834,1.488,1.060,0.459,0.806,0.767,�k�k��,4.9,��
2018/10/20,02:50,0.783,1.180,0.834,1.489,1.061,0.458,0.809,0.765,�k�k��,5.4,��
2018/10/20,03:00,0.782,1.181,0.833,1.489,1.062,0.460,0.806,0.767,�k�k��,4.9,��
2018/10/20,03:10,0.783,1.181,0.834,1.488,1.061,0.460,0.806,0.765,�k�k��,4.6,��
2018/10/20,03:20,0.782,1.179,0.832,1.490,1.061,0.459,0.808,0.764,�k��,4.8,��
2018/10/20,03:30,0.783,1.178,0.834,1.489,1.062,0.459,0.807,0.766,�k��,4.9,��
2018/10/20,03:40,0.782,1.181,0.831,1.491,1.061,0.459,0.808,0.766,�k�k��,5.3,��
2018/10/20,03:50,0.783,1.179,0.833,1.488,1.059,0.459,0.806,0.766,�k��,4.6,��
2018/10/20,04:00,0.782,1.179,0.831,1.490,1.060,0.460,0.807,0.766,�k��,5.3,��
2018/10/20,04:10,0.781,1.180,0.832,1.489,1.061,0.460,0.809,0.764,�k�k��,5.8,��
2018/10/20,04:20,0.782,1.182,0.833,1.488,1.060,0.460,0.807,0.765,�k�k��,5.5,��
2018/10/20,04:30,0.783,1.181,0.834,1.491,1.063,0.460,0.807,0.766,�k�k��,4.8,��
2018/10/20,04:40,0.783,1.179,0.833,1.490,1.059,0.460,0.807,0.767,�k�k��,5.5,��
2018/10/20,04:50,0.781,1.182,0.832,1.490,1.060,0.458,0.805,0.766,�k�k��,5.6,��
2018/10/20,05:00,0.782,1.181,0.834,1.490,1.061,0.459,0.808,0.765,�k�k��,5.4,��
2018/10/20,05:10,0.780,1.180,0.832,1.489,1.058,0.458,0.806,0.766,�k�k��,5.3,��
2018/10/20,05:20,0.782,1.179,0.831,1.491,1.061,0.459,0.806,0.766,�k�k��,5.8,��
2018/10/20,05:30,0.782,1.180,0.835,1.490,1.060,0.459,0.808,0.765,�k�k��,5.6,��
2018/10/20,05:40,0.782,1.180,0.832,1.493,1.061,0.458,0.806,0.764,�k�k��,5.7,��
2018/10/20,05:50,0.782,1.180,0.832,1.493,1.062,0.459,0.808,0.766,�k�k��,5.8,��
2018/10/20,06:00,0.784,1.179,0.833,1.490,1.060,0.460,0.807,0.764,�k�k��,5.6,��
2018/10/20,06:10,0.784,1.181,0.833,1.489,1.060,0.460,0.807,0.766,�k�k��,5.0,��
2018/10/20,06:20,0.783,1.181,0.832,1.491,1.061,0.459,0.808,0.764,�k�k��,4.6,��
2018/10/20,06:30,0.784,1.181,0.833,1.491,1.059,0.460,0.807,0.766,�k�k��,4.6,��
2018/10/20,06:40,0.782,1.182,0.832,1.491,1.061,0.459,0.809,0.765,�k�k��,4.6,��
2018/10/20,06:50,0.781,1.179,0.834,1.490,1.059,0.460,0.807,0.766,�k�k��,4.1,��
2018/10/20,07:00,0.783,1.178,0.833,1.490,1.059,0.460,0.809,0.767,�k�k��,4.3,��
2018/10/20,07:10,0.784,1.182,0.832,1.491,1.062,0.460,0.808,0.766,�k�k��,4.6,��
2018/10/20,07:20,0.783,1.180,0.832,1.489,1.060,0.461,0.804,0.764,�k�k��,4.1,��
2018/10/20,07:30,0.783,1.182,0.833,1.489,1.059,0.461,0.809,0.765,�k�k��,3.9,��
2018/10/20,07:40,0.783,1.181,0.833,1.490,1.061,0.462,0.807,0.767,�k�k��,4.7,��
2018/10/20,07:50,0.785,1.182,0.834,1.490,1.061,0.460,0.807,0.766,�k�k��,4.3,��
2018/10/20,08:00,0.783,1.180,0.834,1.490,1.061,0.461,0.806,0.767,�k�k��,5.5,��
2018/10/20,08:10,0.784,1.180,0.832,1.490,1.062,0.459,0.805,0.765,�k�k��,5.0,��
2018/10/20,08:20,0.785,1.181,0.834,1.491,1.062,0.460,0.808,0.768,�k�k��,4.9,��
2018/10/20,08:30,0.784,1.181,0.833,1.491,1.062,0.459,0.806,0.765,�k�k��,5.0,��
2018/10/20,08:40,0.784,1.181,0.833,1.488,1.064,0.460,0.807,0.768,�k,4.7,��
2018/10/20,08:50,0.785,1.181,0.835,1.491,1.063,0.459,0.808,0.767,�k�k��,3.6,��
2018/10/20,09:00,0.785,1.182,0.834,1.492,1.065,0.461,0.807,0.767,�k�k��,3.2,��
2018/10/20,09:10,0.785,1.178,0.835,1.493,1.065,0.460,0.807,0.766,�k,3.3,��
2018/10/20,09:20,0.787,1.180,0.836,1.492,1.064,0.458,0.807,0.767,�k,3.0,��
2018/10/20,09:30,0.786,1.178,0.834,1.493,1.061,0.459,0.809,0.766,�k�k��,3.7,��
2018/10/20,09:40,0.786,1.175,0.833,1.494,1.062,0.458,0.808,0.766,�k��,3.9,��
2018/10/20,09:50,0.784,1.175,0.830,1.494,1.064,0.459,0.808,0.766,�k�k��,3.2,��
2018/10/20,10:00,0.782,1.175,0.831,1.496,1.064,0.459,0.808,0.764,�k�k��,2.6,��
2018/10/20,10:10,0.783,1.176,0.832,1.494,1.065,0.459,0.808,0.764,�k�k��,3.3,��
2018/10/20,10:20,0.783,1.179,0.833,1.492,1.064,0.460,0.808,0.764,�k�k��,6.0,��
2018/10/20,10:30,0.786,1.179,0.832,1.493,1.065,0.459,0.807,0.763,�k�k��,6.2,�L
2018/10/20,10:40,0.785,1.176,0.833,1.494,1.061,0.460,0.807,0.764,�k,5.7,�L
2018/10/20,10:50,0.783,1.178,0.832,1.492,1.065,0.459,0.808,0.764,�k,5.1,�L
2018/10/20,11:00,0.782,1.177,0.833,1.494,1.063,0.460,0.808,0.764,�k,3.2,�L
2018/10/20,11:10,0.781,1.179,0.833,1.492,1.062,0.458,0.808,0.763,�k,2.6,�L
2018/10/20,11:20,0.782,1.177,0.834,1.492,1.060,0.459,0.808,0.764,�k,3.0,��
2018/10/20,11:30,0.784,1.180,0.836,1.494,1.065,0.459,0.808,0.764,�k�k��,3.7,��
2018/10/20,11:40,0.785,1.186,0.836,1.491,1.067,0.459,0.809,0.763,�k,4.3,��
2018/10/20,11:50,0.784,1.183,0.836,1.493,1.068,0.461,0.808,0.766,�k,4.6,��
2018/10/20,12:00,0.785,1.179,0.834,1.491,1.066,0.460,0.809,0.765,�k�k��,4.9,��
2018/10/20,12:10,0.784,1.183,0.838,1.489,1.066,0.461,0.807,0.766,�k,4.7,��
2018/10/20,12:20,0.784,1.183,0.837,1.490,1.066,0.459,0.808,0.766,�k,4.1,��
2018/10/20,12:30,0.783,1.180,0.835,1.491,1.067,0.458,0.809,0.766,�k,3.1,��
2018/10/20,12:40,0.783,1.176,0.836,1.494,1.065,0.460,0.809,0.765,�k�k��,2.8,��
2018/10/20,12:50,0.784,1.179,0.836,1.491,1.068,0.460,0.809,0.766,�k,3.4,��
2018/10/20,13:00,0.786,1.176,0.836,1.492,1.066,0.459,0.808,0.766,�k,2.6,��
2018/10/20,13:10,0.784,1.178,0.833,1.494,1.065,0.459,0.807,0.766,�k,3.3,��
2018/10/20,13:20,0.786,1.179,0.837,1.492,1.067,0.459,0.808,0.766,�k,3.0,�L
2018/10/20,13:30,0.785,1.182,0.835,1.492,1.067,0.458,0.809,0.765,�k,3.0,�L
2018/10/20,13:40,0.787,1.181,0.834,1.494,1.068,0.458,0.809,0.766,�k,3.0,�L
2018/10/20,13:50,0.784,1.183,0.837,1.495,1.068,0.461,0.808,0.767,�k,3.5,�L
2018/10/20,14:00,0.785,1.181,0.835,1.495,1.067,0.458,0.809,0.765,�k,3.0,�L
2018/10/20,14:10,0.787,1.181,0.836,1.493,1.066,0.459,0.809,0.766,�k,2.3,��
2018/10/20,14:20,0.787,1.182,0.837,1.495,1.067,0.460,0.810,0.765,�k�k��,2.9,�L
2018/10/20,14:30,0.786,1.184,0.836,1.497,1.068,0.459,0.808,0.764,�k��,2.2,�L
2018/10/20,14:40,0.786,1.184,0.837,1.491,1.068,0.460,0.808,0.767,�k�k��,1.9,�L
2018/10/20,14:50,0.787,1.184,0.837,1.493,1.068,0.460,0.808,0.766,�k�k��,2.9,�L
2018/10/20,15:00,0.789,1.183,0.837,1.494,1.067,0.460,0.809,0.764,�k�k��,2.0,��
2018/10/20,15:10,0.788,1.184,0.836,1.491,1.068,0.460,0.809,0.765,�k,2.9,��
2018/10/20,15:20,0.787,1.184,0.837,1.494,1.069,0.460,0.809,0.765,�k,4.3,��
2018/10/20,15:30,0.785,1.183,0.836,1.495,1.068,0.461,0.809,0.765,�k,3.9,��
2018/10/20,15:40,0.785,1.185,0.835,1.495,1.068,0.459,0.808,0.765,�k�k��,3.5,��
2018/10/20,15:50,0.786,1.187,0.836,1.494,1.068,0.459,0.809,0.765,�k�k��,3.7,��
2018/10/20,16:00,0.786,1.186,0.834,1.493,1.069,0.459,0.808,0.766,�k�k��,3.5,��
2018/10/20,16:10,0.786,1.188,0.837,1.493,1.068,0.460,0.807,0.765,�k�k��,3.5,��
2018/10/20,16:20,0.787,1.189,0.837,1.493,1.069,0.459,0.809,0.767,�k��,4.1,��
2018/10/20,16:30,0.786,1.188,0.836,1.494,1.069,0.460,0.808,0.767,�k�k��,4.0,��
2018/10/20,16:40,0.787,1.187,0.837,1.490,1.066,0.460,0.808,0.766,�k�k��,4.7,��
2018/10/20,16:50,0.786,1.188,0.836,1.496,1.070,0.460,0.808,0.766,�k��,4.4,��
2018/10/20,17:00,0.786,1.188,0.836,1.494,1.068,0.461,0.809,0.768,�k��,4.3,��
2018/10/20,17:10,0.788,1.188,0.836,1.497,1.070,0.458,0.807,0.768,�k��,5.3,��
2018/10/20,17:20,0.787,1.187,0.837,1.494,1.070,0.459,0.808,0.768,�k��,5.1,��
2018/10/20,17:30,0.788,1.186,0.836,1.494,1.067,0.461,0.808,0.767,�k��,5.5,��
2018/10/20,17:40,0.788,1.188,0.838,1.496,1.067,0.460,0.809,0.768,�k��,5.7,��
2018/10/20,17:50,0.787,1.186,0.837,1.494,1.070,0.460,0.809,0.767,�k��,6.2,��
2018/10/20,18:00,0.785,1.185,0.836,1.497,1.068,0.460,0.809,0.767,�k��,5.6,��
2018/10/20,18:10,0.787,1.185,0.835,1.493,1.069,0.460,0.809,0.768,�k��,5.4,��
2018/10/20,18:20,0.788,1.187,0.835,1.494,1.068,0.460,0.810,0.769,�k��,6.0,��
2018/10/20,18:30,0.787,1.187,0.837,1.497,1.068,0.459,0.810,0.767,�k��,6.3,��
2018/10/20,18:40,0.785,1.186,0.834,1.496,1.065,0.459,0.809,0.768,�k�k��,6.6,��
2018/10/20,18:50,0.786,1.186,0.836,1.493,1.066,0.461,0.809,0.766,�k�k��,6.9,��
2018/10/20,19:00,0.786,1.186,0.834,1.494,1.068,0.460,0.810,0.768,�k�k��,6.5,��
2018/10/20,19:10,0.786,1.186,0.836,1.495,1.069,0.460,0.809,0.767,�k��,7.1,��
2018/10/20,19:20,0.785,1.188,0.835,1.495,1.069,0.459,0.809,0.766,�k��,7.2,��
2018/10/20,19:30,0.789,1.188,0.836,1.494,1.068,0.459,0.808,0.766,�k��,7.6,��
2018/10/20,19:40,0.787,1.186,0.835,1.497,1.068,0.460,0.809,0.766,�k�k��,6.9,��
2018/10/20,19:50,0.787,1.186,0.834,1.495,1.068,0.459,0.810,0.766,�k��,7.1,��
2018/10/20,20:00,0.787,1.188,0.836,1.495,1.070,0.460,0.811,0.769,�k��,7.4,��
2018/10/20,20:10,0.786,1.187,0.836,1.496,1.068,0.460,0.810,0.767,�k��,6.6,��
2018/10/20,20:20,0.786,1.186,0.835,1.496,1.068,0.458,0.809,0.767,�k��,6.7,��
2018/10/20,20:30,0.786,1.185,0.836,1.497,1.067,0.459,0.808,0.766,�k��,7.0,��
2018/10/20,20:40,0.787,1.187,0.835,1.492,1.068,0.460,0.808,0.768,�k��,6.7,��
2018/10/20,20:50,0.786,1.189,0.834,1.495,1.066,0.460,0.808,0.765,�k�k��,7.1,��
2018/10/20,21:00,0.785,1.185,0.836,1.495,1.065,0.460,0.808,0.768,�k��,6.3,��
2018/10/20,21:10,0.784,1.187,0.835,1.494,1.067,0.458,0.807,0.768,�k��,6.5,��
2018/10/20,21:20,0.787,1.185,0.835,1.494,1.067,0.460,0.809,0.767,�k��,6.1,��
2018/10/20,21:30,0.784,1.188,0.835,1.494,1.069,0.459,0.809,0.766,�k��,6.1,��
2018/10/20,21:40,0.784,1.186,0.834,1.494,1.067,0.460,0.806,0.768,�k��,6.6,��
2018/10/20,21:50,0.786,1.185,0.833,1.495,1.067,0.459,0.811,0.767,�k��,7.5,��
2018/10/20,22:00,0.786,1.186,0.836,1.497,1.066,0.460,0.809,0.767,�k��,7.3,��
2018/10/20,22:10,0.784,1.187,0.836,1.495,1.068,0.459,0.810,0.767,�k��,7.6,��
2018/10/20,22:20,0.785,1.183,0.836,1.494,1.068,0.460,0.809,0.766,�k��,8.7,��
2018/10/20,22:30,0.784,1.182,0.837,1.494,1.067,0.459,0.810,0.767,�k�k��,7.9,��
2018/10/20,22:40,0.784,1.184,0.835,1.496,1.065,0.458,0.809,0.767,�k��,8.1,��
2018/10/20,22:50,0.784,1.184,0.836,1.493,1.067,0.458,0.809,0.768,�k��,8.0,��
2018/10/20,23:00,0.786,1.186,0.834,1.496,1.065,0.458,0.811,0.767,�k��,8.2,��
2018/10/20,23:10,0.785,1.187,0.834,1.494,1.067,0.457,0.809,0.768,�k��,7.2,��
2018/10/20,23:20,0.787,1.186,0.835,1.496,1.068,0.459,0.808,0.769,�k��,8.0,��
2018/10/20,23:30,0.784,1.188,0.835,1.494,1.068,0.458,0.806,0.767,�k��,8.0,��
2018/10/20,23:40,0.786,1.185,0.834,1.494,1.067,0.460,0.810,0.768,�k��,7.8,��
2018/10/20,23:50,0.785,1.185,0.836,1.496,1.068,0.458,0.809,0.768,�k��,7.9,��
